Location: ??
(35.1714°N, 128.2806°E)
Time: 15:14:06
(UTC+00:00)

Cosmos 220 Rocket - Pass Details

Date: 29 October 2020
Orbit: 574 x 617 km, 74.0° (Epoch: 01 December)

Event Time Altitude Azimuth Distance (km) Brightness Sun altitude
Exits shadow 19:51:49 34° 357° (N) 1,008 5.0 -23.9°
Maximum altitude 19:53:38 70° 72° (ENE) 652 4.2 -23.5°
Drops below altitude 10° 19:57:59 10° 156° (SSE) 1,952 6.9 -22.6°
Sets 20:00:13 0° 159° (SSE) 2,845 7.8 -22.2°
